LPPSLPMA

Guest
Details From LPPS - Porto Santo
To LPMA - Madeira
Flight Number -
Tags generated
Created
Modified
Stats Distance 33 nm / 61 km
Max Altitude 300 ft / 91 m
Waypoints 3
Social Downloads 3
Likes 0
Share VATSIM

Download

Looking for another format? Having issues loading an existing format? Contact us
Advertisement - Login to hide

Notes

Basic altitude profile: - Ascent Rate: 2500ft/min - Ascent Speed: 250kts - Cruise Altitude: 35000ft - Cruise Speed: 420kts - Descent Rate: 1500ft/min - Descent Speed: 250kts Options: - Use NATs: yes - Use PACOTS: yes - Use low airways: yes - Use high airways: no

Route

LPPS SNT LPMA

ID Type Via Altitude Latitude Longitude Leg Dist Tot Dist Heading (true) Name
O LPPS APT - 0 ft / 0 m 33.07341˚ -16.34995˚ - 0 nm - Porto Santo
SNT VOR - 300 ft / 91 m 33.09028˚ -16.35056˚ 1 nm 1 nm 358° / 358° PORTO SANTO VOR-DME
O LPMA APT - 0 ft / 0 m 32.69770˚ -16.77445˚ 31 nm 32 nm 222° / 222° Madeira

Altitude Profile

Advertisement - Login to hide

LPPS

Details ICAO LPPS (PXO)
Name Porto Santo
Region Portugal
Timezone Atlantic/Madeira (UTC+0.0)
Stats Elevation 340 ft / 104 m (AMSL)
Location 33.073413° -16.349946°
Runways 1
Magnetic Variation 4.819° W

METAR

LPPS 141000Z 03010KT 9999 SCT013 19/15 Q1029

Decode

TAF

TAF LPPS 140500Z 1406/1512 03010KT 9999 SCT013 PROB30 TEMPO 1406/1412 BKN012 BECMG 1421/1424 36010KT

Decode

Departure Runways

ID Width Length Bearing (true) Bearing (mag) Surface Threshold Offset Overrun Length
18 148 ft / 45 m 9,890 ft / 3,014 m 178.11° 182.93° Asphalt 0 ft / 0 m 0 ft / 0 m
36 148 ft / 45 m 9,890 ft / 3,014 m 358.12° 2.94° Asphalt 0 ft / 0 m 499 ft / 152 m

LPMA

Details ICAO LPMA (FNC)
Name Madeira
Region Portugal
Timezone Atlantic/Madeira (UTC+0.0)
Stats Elevation 192 ft / 59 m (AMSL)
Location 32.697704° -16.774449°
Runways 1
Magnetic Variation 4.982° W

METAR

LPMA 141000Z 02008KT 340V050 9999 SCT015 18/14 Q1029

Decode

TAF

TAF LPMA 140500Z 1406/1506 01012KT 9999 SCT015 PROB30 TEMPO 1406/1412 01015G25KT BKN013

Decode

Destination Runways

ID Width Length Bearing (true) Bearing (mag) Surface Threshold Offset Overrun Length
05 141 ft / 43 m 8,683 ft / 2,647 m 42.98° 47.96° Asphalt 472 ft / 144 m 0 ft / 0 m
23 141 ft / 43 m 8,683 ft / 2,647 m 222.99° 227.97° Asphalt 466 ft / 142 m 0 ft / 0 m

Popular Alternatives